Location: Carrières
(48.9495°N, 2.0407°E)
Time: 09:12:56
(UTC+00:00)

Okean O Rocket - Pass Details

Date: 28 January 2023
Orbit: 620 x 643 km, 98.1° (Epoch: 23 March)

Event Time Altitude Azimuth Distance (km) Brightness Sun altitude
Exits shadow 18:47:19 12° 157° (SSE) 1,876 3.8 -20.5°
Maximum altitude 18:51:22 75° 73° (ENE) 661 1.4 -21.1°
Drops below altitude 10° 18:55:47 10° 349° (N) 2,033 4.3 -21.8°
Sets 18:58:00 0° 348° (NNW) 2,950 5.2 -22.2°
